Time,TemperatureF,DewpointF,PressureIn,WindDirection,WindDirectionDegrees,WindSpeedMPH,WindSpeedGustMPH,Humidity,HourlyPrecipIn,Conditions,Clouds,dailyrainin,SoftwareType,DateUTC
2013-02-26 00:00:00,27.6,25.0,30.27,East,84,0.0,1.0,90,0.00,,,0.00,weatherlink.com 1.10,2013-02-26 05:00:00,
2013-02-26 00:34:00,27.5,25.0,30.27,East,85,0.0,1.0,90,0.00,,,0.00,weatherlink.com 1.10,2013-02-26 05:34:00,
2013-02-26 00:45:00,27.5,25.0,30.28,East,85,0.0,1.0,89,0.00,,,0.00,weatherlink.com 1.10,2013-02-26 05:45:00,
2013-02-26 01:00:00,27.5,25.0,30.27,ESE,113,1.0,2.0,89,0.00,,,0.00,weatherlink.com 1.10,2013-02-26 06:00:00,
2013-02-26 01:15:00,27.3,25.0,30.27,ESE,104,0.0,1.0,90,0.00,,,0.00,weatherlink.com 1.10,2013-02-26 06:15:00,
2013-02-26 01:34:00,27.1,25.0,30.27,ESE,103,0.0,1.0,90,0.00,,,0.00,weatherlink.com 1.10,2013-02-26 06:34:00,
2013-02-26 01:45:00,26.7,24.0,30.28,ESE,103,0.0,1.0,90,0.00,,,0.00,weatherlink.com 1.10,2013-02-26 06:45:00,
2013-02-26 02:00:00,26.5,24.0,30.27,ESE,103,0.0,1.0,90,0.00,,,0.00,weatherlink.com 1.10,2013-02-26 07:00:00,
2013-02-26 02:15:00,26.3,24.0,30.27,ESE,103,0.0,1.0,90,0.00,,,0.00,weatherlink.com 1.10,2013-02-26 07:15:00,
2013-02-26 02:34:00,26.1,24.0,30.28,ESE,103,0.0,0.0,90,0.00,,,0.00,weatherlink.com 1.10,2013-02-26 07:34:00,
2013-02-26 02:45:00,25.9,23.0,30.28,ESE,103,0.0,0.0,90,0.00,,,0.00,weatherlink.com 1.10,2013-02-26 07:45:00,
2013-02-26 03:00:00,25.8,24.0,30.27,ESE,103,0.0,1.0,91,0.00,,,0.00,weatherlink.com 1.10,2013-02-26 08:00:00,
2013-02-26 03:15:00,25.8,24.0,30.27,ESE,103,0.0,1.0,91,0.00,,,0.00,weatherlink.com 1.10,2013-02-26 08:15:00,
2013-02-26 03:34:00,25.8,24.0,30.26,East,89,0.0,1.0,91,0.00,,,0.00,weatherlink.com 1.10,2013-02-26 08:34:00,
2013-02-26 03:45:00,25.9,24.0,30.25,East,90,0.0,1.0,91,0.00,,,0.00,weatherlink.com 1.10,2013-02-26 08:45:00,
2013-02-26 04:00:00,25.9,24.0,30.25,East,91,1.0,1.0,91,0.00,,,0.00,weatherlink.com 1.10,2013-02-26 09:00:00,
2013-02-26 04:15:00,25.8,24.0,30.26,East,91,0.0,0.0,91,0.00,,,0.00,weatherlink.com 1.10,2013-02-26 09:15:00,
2013-02-26 04:34:00,25.7,24.0,30.25,East,90,0.0,0.0,91,0.00,,,0.00,weatherlink.com 1.10,2013-02-26 09:34:00,
2013-02-26 04:46:00,25.7,24.0,30.25,East,90,0.0,0.0,91,0.00,,,0.00,weatherlink.com 1.10,2013-02-26 09:46:00,
2013-02-26 05:01:00,25.7,24.0,30.25,East,90,0.0,0.0,91,0.00,,,0.00,weatherlink.com 1.10,2013-02-26 10:01:00,
2013-02-26 05:16:00,25.8,24.0,30.24,East,90,0.0,0.0,91,0.00,,,0.00,weatherlink.com 1.10,2013-02-26 10:16:00,
2013-02-26 05:34:00,25.8,24.0,30.24,East,90,0.0,0.0,91,0.00,,,0.00,weatherlink.com 1.10,2013-02-26 10:34:00,
2013-02-26 05:46:00,25.7,24.0,30.24,East,90,0.0,0.0,91,0.00,,,0.00,weatherlink.com 1.10,2013-02-26 10:46:00,
2013-02-26 06:01:00,25.7,24.0,30.24,East,91,0.0,0.0,91,0.00,,,0.00,weatherlink.com 1.10,2013-02-26 11:01:00,
2013-02-26 06:16:00,25.8,24.0,30.24,East,90,0.0,0.0,91,0.00,,,0.00,weatherlink.com 1.10,2013-02-26 11:16:00,
2013-02-26 06:35:00,25.8,24.0,30.24,East,91,0.0,0.0,91,0.00,,,0.00,weatherlink.com 1.10,2013-02-26 11:35:00,
2013-02-26 06:46:00,25.8,24.0,30.25,East,91,0.0,0.0,91,0.00,,,0.00,weatherlink.com 1.10,2013-02-26 11:46:00,
2013-02-26 07:01:00,25.8,24.0,30.26,East,90,0.0,0.0,91,0.00,,,0.00,weatherlink.com 1.10,2013-02-26 12:01:00,
2013-02-26 07:16:00,25.8,24.0,30.26,East,91,0.0,0.0,91,0.00,,,0.00,weatherlink.com 1.10,2013-02-26 12:16:00,
2013-02-26 07:34:00,26.4,24.0,30.26,East,90,0.0,0.0,92,0.00,,,0.00,weatherlink.com 1.10,2013-02-26 12:34:00,
2013-02-26 07:46:00,27.0,25.0,30.25,East,90,0.0,0.0,92,0.00,,,0.00,weatherlink.com 1.10,2013-02-26 12:46:00,
2013-02-26 08:02:00,27.7,26.0,30.26,East,90,0.0,0.0,91,0.00,,,0.00,weatherlink.com 1.10,2013-02-26 13:02:00,
2013-02-26 08:17:00,28.5,26.0,30.27,ENE,77,0.0,0.0,91,0.00,,,0.00,weatherlink.com 1.10,2013-02-26 13:17:00,
2013-02-26 08:35:00,30.1,28.0,30.27,ENE,77,0.0,0.0,92,0.00,,,0.00,weatherlink.com 1.10,2013-02-26 13:35:00,
2013-02-26 08:47:00,32.5,30.0,30.26,ENE,72,0.0,2.0,91,0.00,,,0.00,weatherlink.com 1.10,2013-02-26 13:47:00,
2013-02-26 09:02:00,34.7,30.0,30.26,NE,53,2.0,5.0,84,0.00,,,0.00,weatherlink.com 1.10,2013-02-26 14:02:00,
2013-02-26 09:17:00,36.0,30.0,30.27,East,85,1.0,2.0,80,0.00,,,0.00,weatherlink.com 1.10,2013-02-26 14:17:00,
2013-02-26 09:35:00,36.9,31.0,30.26,East,89,1.0,3.0,78,0.00,,,0.00,weatherlink.com 1.10,2013-02-26 14:35:00,
2013-02-26 09:47:00,38.1,31.0,30.25,East,99,2.0,3.0,75,0.00,,,0.00,weatherlink.com 1.10,2013-02-26 14:47:00,
2013-02-26 10:02:00,39.0,31.0,30.25,NE,56,1.0,4.0,73,0.00,,,0.00,weatherlink.com 1.10,2013-02-26 15:02:00,
2013-02-26 10:17:00,39.9,31.0,30.24,East,84,1.0,4.0,70,0.00,,,0.00,weatherlink.com 1.10,2013-02-26 15:17:00,
2013-02-26 10:35:00,40.6,32.0,30.23,ESE,112,5.0,6.0,70,0.00,,,0.00,weatherlink.com 1.10,2013-02-26 15:35:00,
2013-02-26 10:47:00,41.1,31.0,30.23,NE,53,3.0,6.0,68,0.00,,,0.00,weatherlink.com 1.10,2013-02-26 15:47:00,
2013-02-26 11:02:00,41.0,32.0,30.23,NNW,342,0.0,10.0,71,0.00,,,0.00,weatherlink.com 1.10,2013-02-26 16:02:00,
2013-02-26 11:17:00,40.9,32.0,30.22,SSW,200,2.0,10.0,71,0.00,,,0.00,weatherlink.com 1.10,2013-02-26 16:17:00,
2013-02-26 11:35:00,41.5,33.0,30.23,NE,53,6.0,10.0,71,0.00,,,0.00,weatherlink.com 1.10,2013-02-26 16:35:00,
2013-02-26 11:47:00,41.5,32.0,30.22,South,170,3.0,10.0,70,0.00,,,0.00,weatherlink.com 1.10,2013-02-26 16:47:00,
2013-02-26 12:02:00,41.3,33.0,30.21,East,84,2.0,9.0,71,0.00,,,0.00,weatherlink.com 1.10,2013-02-26 17:02:00,
2013-02-26 12:17:00,41.9,33.0,30.20,NE,48,2.0,3.0,72,0.00,,,0.00,weatherlink.com 1.10,2013-02-26 17:17:00,
2013-02-26 12:35:00,42.4,33.0,30.19,NNE,25,2.0,5.0,70,0.00,,,0.00,weatherlink.com 1.10,2013-02-26 17:35:00,
2013-02-26 12:46:00,42.0,33.0,30.18,East,81,1.0,9.0,71,0.00,,,0.00,weatherlink.com 1.10,2013-02-26 17:46:00,
2013-02-26 13:01:00,42.1,33.0,30.18,SSE,151,4.0,8.0,70,0.00,,,0.00,weatherlink.com 1.10,2013-02-26 18:01:00,
2013-02-26 13:16:00,42.2,33.0,30.17,East,96,3.0,6.0,71,0.00,,,0.00,weatherlink.com 1.10,2013-02-26 18:16:00,
2013-02-26 13:36:00,42.2,33.0,30.16,SSE,165,0.0,8.0,71,0.00,,,0.00,weatherlink.com 1.10,2013-02-26 18:36:00,
2013-02-26 13:47:00,42.2,33.0,30.15,SE,131,3.0,6.0,71,0.00,,,0.00,weatherlink.com 1.10,2013-02-26 18:47:00,
2013-02-26 14:17:00,41.7,34.0,30.13,East,84,1.0,5.0,75,0.00,,,0.00,weatherlink.com 1.10,2013-02-26 19:17:00,
2013-02-26 14:36:00,41.3,35.0,30.11,SE,129,4.0,5.0,78,0.00,,,0.00,weatherlink.com 1.10,2013-02-26 19:36:00,
2013-02-26 14:47:00,41.3,35.0,30.11,ESE,116,3.0,4.0,79,0.00,,,0.00,weatherlink.com 1.10,2013-02-26 19:47:00,
2013-02-26 15:02:00,41.3,36.0,30.10,SE,139,0.0,7.0,80,0.00,,,0.00,weatherlink.com 1.10,2013-02-26 20:02:00,
2013-02-26 15:17:00,40.8,36.0,30.09,ENE,65,1.0,3.0,83,0.02,,,0.02,weatherlink.com 1.10,2013-02-26 20:17:00,
2013-02-26 15:36:00,40.4,36.0,30.08,SE,127,0.0,6.0,85,0.03,,,0.03,weatherlink.com 1.10,2013-02-26 20:36:00,
2013-02-26 15:48:00,40.3,37.0,30.06,ESE,121,2.0,3.0,86,0.03,,,0.03,weatherlink.com 1.10,2013-02-26 20:48:00,
2013-02-26 16:02:00,40.4,37.0,30.05,NNE,32,2.0,9.0,86,0.03,,,0.03,weatherlink.com 1.10,2013-02-26 21:02:00,
2013-02-26 16:18:00,40.5,36.0,30.04,NE,36,1.0,9.0,85,0.03,,,0.04,weatherlink.com 1.10,2013-02-26 21:18:00,
2013-02-26 16:36:00,40.5,36.0,30.03,SE,139,4.0,6.0,85,0.02,,,0.04,weatherlink.com 1.10,2013-02-26 21:36:00,
2013-02-26 16:47:00,40.3,36.0,30.02,NE,51,1.0,6.0,85,0.01,,,0.04,weatherlink.com 1.10,2013-02-26 21:47:00,
2013-02-26 17:02:00,40.3,36.0,30.02,SE,128,6.0,9.0,83,0.01,,,0.04,weatherlink.com 1.10,2013-02-26 22:02:00,
2013-02-26 17:17:00,40.5,36.0,30.01,North,5,2.0,9.0,83,0.00,,,0.04,weatherlink.com 1.10,2013-02-26 22:17:00,
2013-02-26 17:36:00,40.6,36.0,29.98,NE,41,2.0,12.0,82,0.00,,,0.04,weatherlink.com 1.10,2013-02-26 22:36:00,
2013-02-26 17:48:00,40.4,36.0,29.96,SE,146,4.0,7.0,83,0.00,,,0.04,weatherlink.com 1.10,2013-02-26 22:48:00,
2013-02-26 18:03:00,40.2,35.0,29.94,ENE,71,5.0,16.0,83,0.00,,,0.04,weatherlink.com 1.10,2013-02-26 23:03:00,
2013-02-26 18:18:00,40.1,36.0,29.95,SSE,152,9.0,12.0,84,0.00,,,0.04,weatherlink.com 1.10,2013-02-26 23:18:00,
2013-02-26 18:36:00,39.9,36.0,29.94,ENE,60,5.0,14.0,85,0.00,,,0.04,weatherlink.com 1.10,2013-02-26 23:36:00,
2013-02-26 18:47:00,39.8,36.0,29.93,East,98,8.0,20.0,86,0.00,,,0.04,weatherlink.com 1.10,2013-02-26 23:47:00,
2013-02-26 19:02:00,39.6,36.0,29.92,ENE,65,6.0,10.0,86,0.00,,,0.04,weatherlink.com 1.10,2013-02-27 00:02:00,
2013-02-26 19:17:00,39.5,36.0,29.90,ESE,105,4.0,10.0,87,0.00,,,0.04,weatherlink.com 1.10,2013-02-27 00:17:00,
2013-02-26 19:36:00,39.3,36.0,29.89,ENE,63,4.0,10.0,88,0.00,,,0.04,weatherlink.com 1.10,2013-02-27 00:36:00,
2013-02-26 19:47:00,39.1,36.0,29.89,ENE,63,2.0,8.0,88,0.01,,,0.05,weatherlink.com 1.10,2013-02-27 00:47:00,
2013-02-26 20:02:00,38.7,36.0,29.88,NE,46,4.0,14.0,89,0.02,,,0.06,weatherlink.com 1.10,2013-02-27 01:02:00,
2013-02-26 20:17:00,38.4,36.0,29.86,NE,54,2.0,12.0,90,0.05,,,0.09,weatherlink.com 1.10,2013-02-27 01:17:00,
2013-02-26 20:37:00,38.2,36.0,29.86,East,86,4.0,11.0,90,0.07,,,0.11,weatherlink.com 1.10,2013-02-27 01:37:00,
2013-02-26 20:48:00,38.2,36.0,29.85,ESE,103,2.0,12.0,90,0.08,,,0.13,weatherlink.com 1.10,2013-02-27 01:48:00,
2013-02-26 21:03:00,38.4,36.0,29.83,SE,124,5.0,9.0,90,0.09,,,0.15,weatherlink.com 1.10,2013-02-27 02:03:00,
2013-02-26 21:18:00,38.4,36.0,29.84,SSE,150,4.0,12.0,90,0.09,,,0.17,weatherlink.com 1.10,2013-02-27 02:18:00,
2013-02-26 21:37:00,38.3,36.0,29.83,ENE,75,2.0,7.0,91,0.09,,,0.20,weatherlink.com 1.10,2013-02-27 02:37:00,
2013-02-26 21:48:00,38.3,36.0,29.82,ESE,104,3.0,13.0,91,0.11,,,0.23,weatherlink.com 1.10,2013-02-27 02:48:00,
2013-02-26 22:03:00,38.5,36.0,29.79,SSE,161,4.0,17.0,91,0.11,,,0.25,weatherlink.com 1.10,2013-02-27 03:03:00,
2013-02-26 22:18:00,38.5,36.0,29.78,East,92,5.0,12.0,91,0.10,,,0.26,weatherlink.com 1.10,2013-02-27 03:18:00,
2013-02-26 22:37:00,38.5,36.0,29.78,ENE,65,1.0,9.0,91,0.11,,,0.30,weatherlink.com 1.10,2013-02-27 03:37:00,
2013-02-26 22:48:00,38.5,36.0,29.79,ENE,65,2.0,11.0,91,0.10,,,0.33,weatherlink.com 1.10,2013-02-27 03:48:00,
2013-02-26 23:03:00,38.5,36.0,29.78,NE,51,0.0,11.0,91,0.12,,,0.37,weatherlink.com 1.10,2013-02-27 04:03:00,
2013-02-26 23:18:00,38.5,36.0,29.76,NNE,29,2.0,5.0,91,0.13,,,0.39,weatherlink.com 1.10,2013-02-27 04:18:00,
2013-02-26 23:37:00,38.4,36.0,29.75,North,8,0.0,9.0,91,0.11,,,0.40,weatherlink.com 1.10,2013-02-27 04:37:00,
2013-02-26 23:48:00,38.4,36.0,29.75,North,360,0.0,9.0,91,0.09,,,0.41,weatherlink.com 1.10,2013-02-27 04:48:00,